Hourly Weather Alifanov

Today, 8 March, Monday

Time Temperature Precipitation Wind Pressure Humidity
00:00 -4°C° 0 mm 7 mps 756 mmHg 66%
01:00 -4°C° 0 mm 7 mps 756 mmHg 66%
02:00 -4°C° 0 mm 7 mps 756 mmHg 65%
03:00 -6°C° 0 mm 7 mps 756 mmHg 72%
04:00 -6°C° 0 mm 7 mps 756 mmHg 73%
05:00 -6°C° 0 mm 7 mps 755 mmHg 73%
06:00 -6°C° 0 mm 7 mps 755 mmHg 74%
07:00 -4°C° 0 mm 7 mps 755 mmHg 72%
08:00 -5°C° 0 mm 8 mps 755 mmHg 71%
09:00 -4°C° 0 mm 9 mps 755 mmHg 70%
10:00 -3°C° 0 mm 9 mps 755 mmHg 66%
11:00 0°C° 0 mm 9 mps 755 mmHg 63%
12:00 +1°C° 0 mm 10 mps 755 mmHg 59%
13:00 +1°C° 0 mm 9 mps 754 mmHg 59%
14:00 +1°C° 0 mm 9 mps 754 mmHg 59%
15:00 +1°C° 0 mm 9 mps 753 mmHg 59%
16:00 +1°C° 0 mm 8 mps 753 mmHg 65%
17:00 0°C° 0 mm 7 mps 753 mmHg 70%
18:00 -1°C° 0 mm 6 mps 753 mmHg 75%
19:00 -1°C° 0 mm 6 mps 753 mmHg 79%
20:00 -2°C° 0 mm 6 mps 754 mmHg 83%
21:00 -2°C° 0 mm 7 mps 754 mmHg 86%
22:00 -2°C° 0 mm 7 mps 754 mmHg 88%
23:00 -2°C° 0 mm 6 mps 753 mmHg 90%

Tomorrow, 9 March, Tuesday

Time Temperature Precipitation Wind Pressure Humidity
00:00 -2°C° 0 mm 6 mps 753 mmHg 92%
01:00 -2°C° 0.2 mm 6 mps 753 mmHg 93%
02:00 -1°C° 0.2 mm 5 mps 753 mmHg 95%
03:00 -1°C° 0.2 mm 5 mps 753 mmHg 96%
04:00 -2°C° 0.1 mm 4 mps 753 mmHg 93%
05:00 -2°C° 0.1 mm 4 mps 753 mmHg 90%
06:00 -2°C° 0.1 mm 3 mps 753 mmHg 87%
07:00 -3°C° 0 mm 4 mps 753 mmHg 81%
08:00 -2°C° 0 mm 5 mps 754 mmHg 76%
09:00 -3°C° 0 mm 6 mps 754 mmHg 71%
10:00 -2°C° 0 mm 6 mps 754 mmHg 66%
11:00 -2°C° 0 mm 6 mps 755 mmHg 62%
12:00 -1°C° 0 mm 6 mps 755 mmHg 57%
13:00 -1°C° 0.1 mm 6 mps 755 mmHg 56%
14:00 -1°C° 0.1 mm 6 mps 755 mmHg 56%
15:00 -1°C° 0.1 mm 6 mps 755 mmHg 55%
16:00 -1°C° 0.1 mm 6 mps 756 mmHg 59%
17:00 -1°C° 0.1 mm 5 mps 756 mmHg 63%
18:00 -2°C° 0.1 mm 5 mps 756 mmHg 67%
19:00 -4°C° 0 mm 5 mps 757 mmHg 70%
20:00 -4°C° 0 mm 4 mps 758 mmHg 72%
21:00 -4°C° 0 mm 4 mps 758 mmHg 74%
22:00 -5°C° 0 mm 4 mps 759 mmHg 73%
23:00 -5°C° 0 mm 3 mps 759 mmHg 72%

Day after tomorrow, 10 March, Wednesday

Time Temperature Precipitation Wind Pressure Humidity
00:00 -6°C° 0 mm 3 mps 759 mmHg 71%
01:00 -6°C° 0 mm 3 mps 760 mmHg 70%
02:00 -7°C° 0 mm 4 mps 760 mmHg 68%
03:00 -7°C° 0 mm 4 mps 761 mmHg 66%
04:00 -8°C° 0 mm 5 mps 761 mmHg 65%
05:00 -8°C° 0 mm 5 mps 761 mmHg 63%
06:00 -8°C° 0 mm 5 mps 762 mmHg 61%
07:00 -8°C° 0 mm 5 mps 762 mmHg 58%
08:00 -8°C° 0 mm 5 mps 763 mmHg 54%
09:00 -8°C° 0 mm 5 mps 763 mmHg 50%
10:00 -7°C° 0 mm 5 mps 763 mmHg 48%
11:00 -7°C° 0 mm 5 mps 764 mmHg 45%
12:00 -6°C° 0 mm 5 mps 764 mmHg 43%
13:00 -6°C° 0 mm 5 mps 764 mmHg 41%
14:00 -5°C° 0 mm 5 mps 764 mmHg 40%
15:00 -5°C° 0 mm 5 mps 764 mmHg 38%
16:00 -5°C° 0 mm 4 mps 764 mmHg 40%
17:00 -5°C° 0 mm 4 mps 764 mmHg 41%
18:00 -7°C° 0 mm 4 mps 764 mmHg 43%
19:00 -7°C° 0 mm 4 mps 764 mmHg 44%
20:00 -7°C° 0 mm 4 mps 764 mmHg 45%
21:00 -8°C° 0 mm 4 mps 765 mmHg 45%
22:00 -8°C° 0 mm 4 mps 765 mmHg 45%
23:00 -9°C° 0 mm 4 mps 765 mmHg 45%

11 March, Thursday

Time Temperature Precipitation Wind Pressure Humidity
00:00 -9°C° 0 mm 4 mps 765 mmHg 45%
01:00 -9°C° 0 mm 4 mps 765 mmHg 46%
02:00 -9°C° 0 mm 3 mps 766 mmHg 47%
03:00 -9°C° 0 mm 3 mps 766 mmHg 49%
04:00 -11°C° 0 mm 4 mps 766 mmHg 51%
05:00 -11°C° 0 mm 4 mps 766 mmHg 53%
06:00 -12°C° 0 mm 4 mps 766 mmHg 55%
07:00 -12°C° 0 mm 4 mps 767 mmHg 53%
08:00 -12°C° 0 mm 4 mps 767 mmHg 51%
09:00 -13°C° 0 mm 5 mps 767 mmHg 48%
10:00 -13°C° 0 mm 5 mps 768 mmHg 43%
11:00 -12°C° 0 mm 5 mps 768 mmHg 38%
12:00 -11°C° 0 mm 5 mps 768 mmHg 32%
13:00 -11°C° 0 mm 5 mps 768 mmHg 31%
14:00 -11°C° 0 mm 5 mps 767 mmHg 31%
15:00 -10°C° 0 mm 5 mps 767 mmHg 30%
16:00 -11°C° 0 mm 5 mps 767 mmHg 31%
17:00 -11°C° 0 mm 5 mps 767 mmHg 32%
18:00 -12°C° 0 mm 5 mps 767 mmHg 33%
19:00 -12°C° 0 mm 5 mps 767 mmHg 35%
20:00 -12°C° 0 mm 5 mps 768 mmHg 37%
21:00 -13°C° 0 mm 5 mps 768 mmHg 38%
22:00 -13°C° 0 mm 5 mps 768 mmHg 41%
23:00 -13°C° 0 mm 5 mps 768 mmHg 43%

12 March, Friday

Time Temperature Precipitation Wind Pressure Humidity
00:00 -14°C° 0 mm 5 mps 768 mmHg 45%
01:00 -14°C° 0 mm 4 mps 769 mmHg 47%
02:00 -14°C° 0 mm 4 mps 769 mmHg 48%
03:00 -14°C° 0 mm 4 mps 769 mmHg 50%
04:00 -15°C° 0 mm 4 mps 769 mmHg 52%
05:00 -15°C° 0 mm 4 mps 769 mmHg 54%
06:00 -15°C° 0 mm 4 mps 769 mmHg 55%
07:00 -14°C° 0 mm 3 mps 770 mmHg 53%
08:00 -13°C° 0 mm 3 mps 770 mmHg 50%
09:00 -13°C° 0 mm 3 mps 770 mmHg 48%
10:00 -10°C° 0 mm 3 mps 770 mmHg 43%
11:00 -9°C° 0 mm 3 mps 770 mmHg 38%
12:00 -9°C° 0 mm 4 mps 770 mmHg 33%
13:00 -7°C° 0 mm 3 mps 770 mmHg 32%
14:00 -7°C° 0 mm 3 mps 770 mmHg 30%
15:00 -6°C° 0 mm 3 mps 770 mmHg 29%
16:00 -6°C° 0 mm 3 mps 770 mmHg 31%
17:00 -6°C° 0 mm 3 mps 770 mmHg 33%
18:00 -7°C° 0 mm 3 mps 770 mmHg 35%
19:00 -7°C° 0 mm 3 mps 770 mmHg 37%
20:00 -7°C° 0 mm 3 mps 770 mmHg 39%
21:00 -7°C° 0 mm 3 mps 771 mmHg 41%
22:00 -8°C° 0 mm 3 mps 771 mmHg 43%
23:00 -7°C° 0 mm 2 mps 771 mmHg 44%

13 March, Saturday

Time Temperature Precipitation Wind Pressure Humidity
00:00 -7°C° 0 mm 2 mps 771 mmHg 46%
01:00 -7°C° 0 mm 2 mps 771 mmHg 45%
02:00 -8°C° 0 mm 3 mps 771 mmHg 44%
03:00 -9°C° 0 mm 3 mps 771 mmHg 44%
04:00 -9°C° 0 mm 3 mps 771 mmHg 43%
05:00 -9°C° 0 mm 3 mps 771 mmHg 43%
06:00 -9°C° 0 mm 3 mps 771 mmHg 42%
07:00 -10°C° 0 mm 4 mps 771 mmHg 38%
08:00 -9°C° 0 mm 4 mps 771 mmHg 34%
09:00 -10°C° 0 mm 5 mps 771 mmHg 30%
10:00 -8°C° 0 mm 5 mps 771 mmHg 28%
11:00 -7°C° 0 mm 5 mps 771 mmHg 27%
12:00 -6°C° 0 mm 5 mps 771 mmHg 25%
13:00 -5°C° 0 mm 5 mps 770 mmHg 25%
14:00 -4°C° 0 mm 5 mps 770 mmHg 25%
15:00 -4°C° 0 mm 5 mps 769 mmHg 25%
16:00 -3°C° 0 mm 4 mps 769 mmHg 27%
17:00 -4°C° 0 mm 4 mps 768 mmHg 29%
18:00 -4°C° 0 mm 3 mps 768 mmHg 31%
19:00 -4°C° 0 mm 4 mps 768 mmHg 33%
20:00 -5°C° 0 mm 4 mps 768 mmHg 34%
21:00 -5°C° 0 mm 4 mps 768 mmHg 35%
22:00 -5°C° 0 mm 4 mps 768 mmHg 35%
23:00 -5°C° 0 mm 4 mps 767 mmHg 34%
Show more